Valley City, ND

3:10 PM CST on December 08, 2019 (GMT -0600)
Valley City

Weather History for KBAC - October, 2019

Change the Weather History Date:

Saturday, October 26, 2019

  Actual Average (WUND) Record (WUND)
Temperature  
Mean Temperature 43 °F -  
Max Temperature 51 °F - - (-1)
Min Temperature 35 °F - - (-1)
Degree Days  
Heating Degree Days 22    
Moisture  
Dew Point 35 °F    
Average Humidity 74    
Maximum Humidity 100    
Minimum Humidity 58    
Precipitation  
Precipitation 0.00 in - - ()
Sea Level Pressure  
Sea Level Pressure 29.69 in    
Wind  
Wind Speed 18 mph (West)    
Max Wind Speed 24 mph    
Max Gust Speed 32 mph    
Visibility 10 miles    
Events Rain , Snow    
Averages and records for this station are not official NWS values.
T = Trace of Precipitation, MM = Missing Value Source: NWS Daily Summary

Daily Weather History Graph

Daily Weather History Graph

Search for Another Location

Airport or City:

Astronomy

Oct. 26, 2019 Rise Set
Actual Time 8:05 AM CDT 6:25 PM CDT
Civil Twilight 7:34 AM CDT 6:57 PM CDT
Nautical Twilight 6:58 AM CDT 7:32 PM CDT
Astronomical Twilight 6:23 AM CDT 8:07 PM CDT
Moon 5:50 AM CDT (10/26) 6:11 PM CDT (10/26)
Length of Visible Light 11h 22m
Length of Day
10h 20m
Waning Crescent, 3% of the Moon is Illuminated
Oct 26
Waning Crescent
Oct 27
New
Nov 4
First Quarter
Nov 12
Full
Nov 19
Last Quarter

Hourly Weather History & Observations

Time (CDT) Temp. Windchill Dew Point Humidity Pressure Visibility Wind Dir Wind Speed Gust Speed Precip Events Conditions
12:15 AM 46.4 °F 38.7 °F 33.8 °F 62% 29.71 in 10.0 mi South 20.7 mph 27.6 mph N/A   Clear
12:35 AM 46.4 °F 38.5 °F 33.8 °F 62% 29.70 in 10.0 mi South 21.9 mph - N/A   Clear
12:55 AM 46.4 °F 39.0 °F 33.8 °F 62% 29.69 in 10.0 mi South 19.6 mph 27.6 mph N/A   Clear
1:15 AM 46.4 °F 38.5 °F 33.8 °F 62% 29.68 in 10.0 mi South 21.9 mph 28.8 mph N/A   Clear
1:35 AM 46.4 °F 38.7 °F 33.8 °F 62% 29.67 in 10.0 mi South 20.7 mph - N/A   Clear
1:55 AM 44.6 °F 36.9 °F 33.8 °F 66% 29.66 in 10.0 mi South 18.4 mph 25.3 mph N/A   Clear
2:15 AM 44.6 °F 36.6 °F 33.8 °F 66% 29.65 in 10.0 mi South 19.6 mph - N/A   Clear
2:35 AM 44.6 °F 37.2 °F 33.8 °F 66% 29.65 in 10.0 mi South 17.3 mph - N/A   Clear
2:55 AM 44.6 °F 37.2 °F 33.8 °F 66% 29.64 in 10.0 mi South 17.3 mph 23.0 mph N/A   Clear
3:15 AM 42.8 °F 34.5 °F 33.8 °F 70% 29.63 in 10.0 mi South 18.4 mph - N/A   Clear
3:35 AM 42.8 °F 35.1 °F 33.8 °F 70% 29.62 in 10.0 mi South 16.1 mph - N/A   Clear
3:55 AM 42.8 °F 34.8 °F 33.8 °F 70% 29.61 in 10.0 mi SSW 17.3 mph - N/A   Clear
4:15 AM 42.8 °F 35.1 °F 33.8 °F 70% 29.59 in 10.0 mi South 16.1 mph - N/A   Clear
4:35 AM 42.8 °F 35.8 °F 33.8 °F 70% 29.59 in 10.0 mi SSW 13.8 mph - N/A   Clear
4:55 AM 42.8 °F 34.8 °F 33.8 °F 70% 29.58 in 10.0 mi SSW 17.3 mph - N/A   Mostly Cloudy
5:15 AM 44.6 °F 37.2 °F 33.8 °F 66% 29.57 in 10.0 mi SSW 17.3 mph - N/A   Overcast
5:35 AM 42.8 °F 35.4 °F 33.8 °F 70% 29.56 in 10.0 mi South 15.0 mph - N/A   Overcast
5:55 AM 42.8 °F 35.1 °F 33.8 °F 70% 29.56 in 10.0 mi South 16.1 mph 23.0 mph N/A   Overcast
6:15 AM 42.8 °F 35.4 °F 33.8 °F 70% 29.57 in 10.0 mi SSW 15.0 mph - N/A   Overcast
6:35 AM 42.8 °F 36.2 °F 33.8 °F 70% 29.58 in 10.0 mi SSW 12.7 mph - N/A   Overcast
6:55 AM 42.8 °F 34.8 °F 33.8 °F 70% 29.56 in 10.0 mi South 17.3 mph - N/A   Scattered Clouds
7:15 AM 41.0 °F 32.8 °F 33.8 °F 76% 29.57 in 10.0 mi SSW 16.1 mph - N/A   Clear
7:35 AM 41.0 °F 33.5 °F 35.6 °F 81% 29.56 in 10.0 mi SSW 13.8 mph - N/A   Clear
7:55 AM 41.0 °F 34.3 °F 35.6 °F 81% 29.57 in 10.0 mi SSW 11.5 mph 19.6 mph N/A   Clear
8:15 AM 41.0 °F 33.5 °F 35.6 °F 81% 29.57 in 10.0 mi SSW 13.8 mph - N/A   Clear
8:35 AM 41.0 °F 33.9 °F 35.6 °F 81% 29.58 in 10.0 mi SSW 12.7 mph - N/A   Clear
8:55 AM 41.0 °F 33.9 °F 35.6 °F 81% 29.59 in 10.0 mi SW 12.7 mph - N/A   Partly Cloudy
9:15 AM 41.0 °F 34.3 °F 35.6 °F 81% 29.60 in 10.0 mi SW 11.5 mph - N/A   Mostly Cloudy
9:35 AM 42.8 °F 37.5 °F 35.6 °F 76% 29.60 in 10.0 mi SW 9.2 mph - N/A   Mostly Cloudy
9:55 AM 42.8 °F 38.6 °F 37.4 °F 81% 29.60 in 10.0 mi SW 6.9 mph - N/A   Mostly Cloudy
10:15 AM 44.6 °F 40.7 °F 37.4 °F 76% 29.61 in 10.0 mi SW 6.9 mph 12.7 mph N/A   Mostly Cloudy
10:55 AM 46.4 °F 43.5 °F 39.2 °F 76% 29.62 in 10.0 mi West 5.8 mph - N/A   Mostly Cloudy
11:15 AM 46.4 °F 42.9 °F 39.2 °F 76% 29.63 in 10.0 mi WNW 6.9 mph - N/A   Mostly Cloudy
11:35 AM 50.0 °F - 39.2 °F 66% 29.63 in 10.0 mi NNW 20.7 mph 28.8 mph N/A   Scattered Clouds
11:55 AM 51.8 °F - 39.2 °F 62% 29.64 in 10.0 mi NNW 18.4 mph 25.3 mph N/A   Clear
12:15 PM 51.8 °F - 39.2 °F 62% 29.64 in 10.0 mi NNW 16.1 mph - N/A   Clear
12:35 PM 51.8 °F - 37.4 °F 58% 29.65 in 10.0 mi NW 18.4 mph - N/A   Clear
12:55 PM 51.8 °F - 37.4 °F 58% 29.66 in 10.0 mi NW 20.7 mph - N/A   Clear
1:15 PM 48.2 °F - 35.6 °F 62% 29.67 in 10.0 mi NW 21.9 mph 32.2 mph N/A   Clear
1:35 PM 48.2 °F - 35.6 °F 62% 29.68 in 10.0 mi NNW 23.0 mph 28.8 mph N/A   Clear
1:55 PM 46.4 °F 39.0 °F 35.6 °F 66% 29.69 in 10.0 mi NW 19.6 mph 28.8 mph N/A   Clear
2:15 PM 48.2 °F - 35.6 °F 62% 29.69 in 10.0 mi NW 24.2 mph - N/A   Clear
2:35 PM 46.4 °F 40.4 °F 35.6 °F 66% 29.69 in 10.0 mi NNW 13.8 mph 27.6 mph N/A   Clear
2:55 PM 46.4 °F 38.7 °F 35.6 °F 66% 29.70 in 10.0 mi NNW 20.7 mph 26.5 mph N/A   Partly Cloudy
3:15 PM 46.4 °F 39.0 °F 35.6 °F 66% 29.70 in 10.0 mi NNW 19.6 mph - N/A   Clear
3:35 PM 46.4 °F 39.5 °F 37.4 °F 71% 29.71 in 10.0 mi NW 17.3 mph 24.2 mph N/A   Mostly Cloudy
3:55 PM 44.6 °F 36.1 °F 35.6 °F 71% 29.72 in 10.0 mi NW 21.9 mph - N/A   Overcast
4:15 PM 44.6 °F 36.9 °F 35.6 °F 71% 29.73 in 10.0 mi NNW 18.4 mph 25.3 mph N/A   Overcast
4:35 PM 44.6 °F 37.2 °F 35.6 °F 71% 29.74 in 10.0 mi NNW 17.3 mph 25.3 mph N/A   Mostly Cloudy
4:55 PM 44.6 °F 36.9 °F 33.8 °F 66% 29.75 in 10.0 mi NNW 18.4 mph 24.2 mph N/A   Mostly Cloudy
5:15 PM 42.8 °F 34.3 °F 32.0 °F 66% 29.75 in 10.0 mi NNW 19.6 mph - N/A   Overcast
5:35 PM 42.8 °F 33.3 °F 32.0 °F 66% 29.76 in 10.0 mi NNW 24.2 mph - N/A   Overcast
5:55 PM 42.8 °F 34.5 °F 32.0 °F 66% 29.77 in 10.0 mi NNW 18.4 mph 29.9 mph N/A   Overcast
6:15 PM 41.0 °F 31.9 °F 32.0 °F 70% 29.78 in 10.0 mi NNW 19.6 mph 27.6 mph N/A   Overcast
6:35 PM 41.0 °F 32.8 °F 32.0 °F 70% 29.79 in 10.0 mi NNW 16.1 mph - N/A   Overcast
6:55 PM 41.0 °F 31.9 °F 32.0 °F 70% 29.79 in 10.0 mi NW 19.6 mph - N/A   Overcast
7:15 PM 41.0 °F 31.4 °F 32.0 °F 70% 29.81 in 10.0 mi NW 21.9 mph - N/A   Overcast
7:35 PM 39.2 °F 28.7 °F 32.0 °F 75% 29.82 in 10.0 mi NW 23.0 mph 28.8 mph N/A   Overcast
7:55 PM 37.4 °F 26.6 °F 35.6 °F 93% 29.84 in 10.0 mi NW 21.9 mph 32.2 mph N/A   Overcast
8:15 PM 35.6 °F 23.7 °F 35.6 °F 100% 29.84 in 9.0 mi NNW 24.2 mph - N/A Snow Light Snow
8:35 PM 35.6 °F 26.6 °F 35.6 °F 100% 29.85 in 6.0 mi NNW 13.8 mph 20.7 mph N/A Rain Light Rain
8:55 PM 35.6 °F 27.1 °F 35.6 °F 100% 29.84 in 10.0 mi NW 12.7 mph - N/A   Overcast
9:15 PM 35.6 °F 26.2 °F 35.6 °F 100% 29.85 in 10.0 mi NNW 15.0 mph 21.9 mph N/A Rain Light Rain
9:35 PM 35.6 °F 26.2 °F 35.6 °F 100% 29.85 in 10.0 mi NNW 15.0 mph - N/A   Overcast
9:55 PM 35.6 °F 27.5 °F 35.6 °F 100% 29.86 in 10.0 mi NNW 11.5 mph - N/A   Light Drizzle
10:15 PM 35.6 °F 27.5 °F 35.6 °F 100% 29.86 in 10.0 mi NW 11.5 mph - N/A   Overcast
10:35 PM 35.6 °F 27.1 °F 35.6 °F 100% 29.86 in 10.0 mi NNW 12.7 mph - N/A   Overcast
10:55 PM 37.4 °F 28.9 °F 37.4 °F 100% 29.86 in 10.0 mi NW 13.8 mph - N/A   Overcast
11:15 PM 37.4 °F 28.2 °F 35.6 °F 93% 29.86 in 10.0 mi NNW 16.1 mph - N/A   Overcast
11:35 PM 37.4 °F 28.5 °F 33.8 °F 87% 29.85 in 10.0 mi NNW 15.0 mph - N/A   Overcast
11:55 PM 37.4 °F 28.2 °F 35.6 °F 93% 29.87 in 10.0 mi NW 16.1 mph - N/A   Overcast